Weather in Druzhba

Russia / Khabarovsk Krai     48°23′04″N   135°18′48″E
temp.,
°C
wind,
m/s
gust,
m/s
humid.,
%
clouds,
%
prec.,
mm/h
press.,
hPa
HPBL,
m
27 february, sat
sat2701:00−20ssw23920 0.0 103422
04:00−22ssw23930 0.0 103520
07:00−22sse33940 0.0 103526
10:00−18ssw24921 0.0 1034161
13:00−12ssw248344 0.0 1033402
16:00−10s258171 0.0 1029502
19:00−11se2389100 0.0 102623
22:00−10s2389100 0.0 102361
28 february, sun
sun2801:00−9ssw1288100 0.0 102044
04:00−7sw31396100 1.2 1018699
07:00−6wsw31096100 1.2 1017492
10:00−7w61192100 1.6 1017459
13:00−7w8128796 0.0 1019624
16:00−7w7108196 0.0 1020884
19:00−10w51279100 0.0 1023434
22:00−14w61579100 0.0 1025421
1 march, mon
mon101:00−17w71576100 0.0 1026440
04:00−19wsw7157850 0.0 1027415
07:00−20wsw816770 0.0 1029462
10:00−19w916730 0.0 1031656
13:00−16w913680 0.0 10311001
16:00−14w711690 0.0 10311226
19:00−17wsw510809 0.0 1032190
22:00−21wsw448532 0.0 103366
2 march, tue
tue201:00−22wsw34880 0.0 103252
04:00−23wsw449211 0.0 103261
07:00−24wsw45889 0.0 103369
10:00−20wsw510745 0.0 1032385
13:00−17w69730 0.0 1031616
16:00−15w59730 0.0 1030770
19:00−20wsw44830 0.0 103164
22:00−22sw33790 0.0 103228
3 march, wed
wed301:00−24sw22830 0.0 103120
04:00−25s12850 0.0 103020
07:00−25sse23870 0.0 103020
10:00−20s23860 0.0 1029150
13:00−13s357419 0.0 1026508
16:00−11s357352 0.0 1022597
19:00−13se2285100 0.0 102020
22:00−14wsw1288100 0.0 101922